Forrest,

4:05 AM AWST on July 24, 2017 (GMT +0800)
Forrest

Weather History for YFRT - January, 2014

Change the Weather History Date:

Wednesday, January 29, 2014

  Actual Average Record
Temperature  
Mean Temperature 73 °F -  
Max Temperature 84 °F - - ()
Min Temperature 62 °F - - ()
Cooling Degree Days 8    
Growing Degree Days 23 (Base 50)    
Moisture  
Dew Point 59 °F    
Average Humidity 68    
Maximum Humidity 100    
Minimum Humidity 31    
Precipitation  
Precipitation 0.00 in - - ()
Sea Level Pressure  
Sea Level Pressure 29.98 in    
Wind  
Wind Speed 14 mph ()    
Max Wind Speed 22 mph    
Max Gust Speed 29 mph    
T = Trace of Precipitation, MM = Missing Value Source: Averaged Metar Reports

Daily Weather History Graph

Daily Weather History Graph

Search for Another Location

Airport or City:

Trip Planner

Search our weather history database for the weather conditions in past years. The results will help you decide how hot, cold, wet, or windy it might be!

Date:

Astronomy

Jan. 29, 2014 Rise Set
Actual Time 4:51 AM AWST 6:29 PM AWST
Civil Twilight 4:25 AM AWST 6:55 PM AWST
Nautical Twilight 3:53 AM AWST 7:26 PM AWST
Astronomical Twilight 3:20 AM AWST 7:59 PM AWST
Moon 2:47 AM AWST (1/29) 4:49 PM AWST (1/29)
Length of Visible Light 14h 30m
Length of Day
13h 37m
Waning Crescent, 5% of the Moon is Illuminated
Jan 29
Waning Crescent
Jan 31
New
Feb 7
First Quarter
Feb 15
Full
Feb 23
Last Quarter

Hourly Weather History & Observations

Time (AWST) Temp. Heat Index Dew Point Humidity Pressure Visibility Wind Dir Wind Speed Gust Speed Precip Events Conditions
12:00 AM 64 °F - 60 °F 81% 30.01 in - SE 13.8 mph - -  
12:00 AM 64.4 °F - 59.0 °F 83% 30.01 in - SE 13.8 mph - N/A   Unknown
12:30 AM 64.4 °F - 59.0 °F 83% 30.01 in - SE 12.7 mph - N/A   Unknown
1:00 AM 64.4 °F - 60.8 °F 88% 30.01 in - SE 11.5 mph - N/A   Unknown
1:30 AM 64.4 °F - 62.6 °F 94% 30.01 in - SE 10.4 mph - N/A   Unknown
2:00 AM 64 °F - 63 °F 97% 29.99 in - SE 15.0 mph - -  
2:00 AM 64.4 °F - 62.6 °F 94% 30.01 in - SE 15.0 mph - N/A   Unknown
2:30 AM 64.4 °F - 62.6 °F 94% 30.01 in - SE 12.7 mph - N/A   Unknown
3:00 AM 64 °F - 63 °F 95% 30.00 in - SE 13.8 mph - -  
3:00 AM 64.4 °F - 62.6 °F 94% 30.01 in - SE 13.8 mph - N/A   Unknown
3:30 AM 64.4 °F - 62.6 °F 94% 30.01 in - SE 11.5 mph - N/A   Unknown
4:00 AM 62.6 °F - 62.6 °F 100% 30.01 in - SSE 10.4 mph - N/A   Unknown
4:30 AM 62.6 °F - 62.6 °F 100% 30.01 in - SE 9.2 mph - N/A   Unknown
5:00 AM 62 °F - 62 °F 99% 30.02 in - SE 9.2 mph - -  
5:00 AM 62.6 °F - 62.6 °F 100% 30.04 in - SE 9.2 mph - N/A   Unknown
5:30 AM 62.6 °F - 62.6 °F 100% 30.04 in - SE 9.2 mph - N/A   Unknown
6:00 AM 64 °F - 64 °F 99% 30.03 in - SE 12.7 mph - -  
6:00 AM 64.4 °F - 64.4 °F 100% 30.04 in - SE 12.7 mph - N/A   Unknown
6:30 AM 66.2 °F - 60.8 °F 83% 30.04 in - SE 15.0 mph - N/A   Unknown
7:00 AM 66.2 °F - 60.8 °F 83% 30.04 in - SE 16.1 mph - N/A   Unknown
7:30 AM 68.0 °F - 59.0 °F 73% 30.04 in - SE 17.3 mph - N/A   Unknown
8:00 AM 69 °F - 57 °F 56% 30.03 in - SE 18.4 mph - -  
8:00 AM 69.8 °F - 57.2 °F 64% 30.04 in - SE 18.4 mph - N/A   Unknown
8:30 AM 71.6 °F - 57.2 °F 60% 30.04 in - SE 17.3 mph - N/A   Unknown
9:00 AM 73 °F - 57 °F 47% 30.01 in - SE 17.3 mph - -  
9:00 AM 73.4 °F - 57.2 °F 57% 30.01 in - SE 17.3 mph - N/A   Unknown
9:30 AM 75.2 °F - 59.0 °F 57% 30.01 in - SE 17.3 mph - N/A   Unknown
10:00 AM 75.2 °F - 57.2 °F 53% 30.01 in - SE 18.4 mph - N/A   Unknown
10:30 AM 77.0 °F - 55.4 °F 47% 30.01 in - SE 17.3 mph - N/A   Unknown
11:00 AM 78 °F - 55 °F 35% 29.97 in - ESE 18.4 mph - -  
11:00 AM 78.8 °F - 55.4 °F 44% 29.98 in - ESE 18.4 mph - N/A   Unknown
11:30 AM 78.8 °F - 55.4 °F 44% 29.98 in - SE 18.4 mph - N/A   Unknown
12:00 PM 79 °F - 55 °F 33% 29.95 in - ESE 18.4 mph - -  
12:00 PM 78.8 °F - 55.4 °F 44% 29.95 in - ESE 18.4 mph - N/A   Unknown
12:30 PM 80.6 °F 80.5 °F 55.4 °F 42% 29.95 in - SE 16.1 mph - N/A   Unknown
1:00 PM 82.4 °F 82.0 °F 57.2 °F 42% 29.95 in - SE 17.3 mph - N/A   Unknown
1:30 PM 80.6 °F 80.8 °F 57.2 °F 45% 29.95 in - SE 17.3 mph - N/A   Unknown
2:00 PM 83 °F - 57 °F 31% 29.91 in - SE 17.3 mph - -  
2:00 PM 82.4 °F 82.0 °F 57.2 °F 42% 29.92 in - SE 17.3 mph - N/A   Unknown
2:30 PM 82.4 °F 82.0 °F 57.2 °F 42% 29.92 in - SE 17.3 mph - N/A   Unknown
3:00 PM 81 °F - 56 °F 32% 29.91 in - SE 18.4 mph - -  
3:04 PM 82.4 °F 82.0 °F 57.2 °F 42% 29.92 in - SE 17.3 mph 28.8 mph N/A   Unknown
3:30 PM 80.6 °F 80.8 °F 57.2 °F 45% 29.92 in - SE 19.6 mph - N/A   Unknown
4:00 PM 80.6 °F 80.8 °F 57.2 °F 45% 29.92 in - SE 20.7 mph - N/A   Unknown
4:30 PM 78.8 °F - 57.2 °F 47% 29.89 in - SE 20.7 mph - N/A   Unknown
5:00 PM 77 °F - 57 °F 40% 29.89 in - SE 21.9 mph - -  
5:00 PM 77.0 °F - 57.2 °F 50% 29.92 in - SE 21.9 mph - N/A   Unknown
5:30 PM 75.2 °F - 57.2 °F 53% 29.92 in - SE 19.6 mph - N/A   Unknown
6:00 PM 73 °F - 57 °F 48% 29.91 in - SE 20.7 mph - -  
6:00 PM 73.4 °F - 57.2 °F 57% 29.92 in - SE 20.7 mph - N/A   Unknown
6:30 PM 71.6 °F - 57.2 °F 60% 29.92 in - SE 18.4 mph - N/A   Unknown
7:00 PM 69.8 °F - 57.2 °F 64% 29.95 in - SE 18.4 mph - N/A   Unknown
7:30 PM 69.8 °F - 57.2 °F 64% 29.95 in - SE 17.3 mph - N/A   Unknown
8:00 PM 68 °F - 58 °F 61% 29.95 in - SE 17.3 mph - -  
8:00 PM 68.0 °F - 57.2 °F 68% 29.98 in - SE 17.3 mph - N/A   Unknown
8:30 PM 66.2 °F - 57.2 °F 73% 29.98 in - ESE 15.0 mph - N/A   Unknown
9:00 PM 66 °F - 59 °F 73% 29.95 in - ESE 16.1 mph - -  
9:00 PM 66.2 °F - 59.0 °F 78% 29.98 in - ESE 16.1 mph - N/A   Unknown
9:30 PM 66.2 °F - 60.8 °F 83% 29.95 in - SE 15.0 mph - N/A   Unknown
10:00 PM 64.4 °F - 60.8 °F 88% 29.98 in - ESE 17.3 mph - N/A   Unknown
10:30 PM 64.4 °F - 62.6 °F 94% 29.98 in - ESE 11.5 mph - N/A   Unknown
11:00 PM 64 °F - 64 °F 99% 29.94 in - SE 11.5 mph - -  
11:00 PM 64.4 °F - 64.4 °F 100% 29.95 in - SE 11.5 mph - N/A   Unknown
11:30 PM 64.4 °F - 62.6 °F 94% 29.95 in - SE 11.5 mph - N/A   Unknown